Regional Weather Roundup
Issued by NWS

Home | Current Version | Previous Version | Graphics & Text | Print | Product List | Glossary On
Versions: 1 2 3 4 5 6 7 8 9 10 11 12 13 14 15 16 17 18 19 20 21 22 23 24 25 26 27
000
ASUS45 KSLC 251010
RWRUT

UTAH REGIONAL WEATHER ROUNDUP
NATIONAL WEATHER SERVICE SALT LAKE CITY UT
400 AM MDT MON JUL 25 2016

UTZ001>011-023>025-251100-

NORTHERN UTAH

CITY           SKY/WX    TMP DP  RH WIND       PRES   REMARKS
BRIGHAM CITY     N/A     62  38  40 N6        30.05S
HILL AFB       PTCLDY    68  30  24 E20       30.08R
LOGAN          CLEAR     55  42  61 NE5       30.10R
OGDEN          CLEAR     66  31  27 CALM      30.05R
PROVO AIRPORT  PTCLDY    66  37  34 CALM      30.09S
SALT LAKE CITY PTCLDY    72  39  30 E7        30.04R
VERNAL         CLEAR     64  26  23 NW6       30.15R
WENDOVER       CLEAR     73  27  17 CALM      30.04S
HEBER CITY     CLEAR     50  41  71 E6        30.20R

$$

UTZ012>022-026-027-251100-

SOUTHERN/CENTRAL UTAH

CITY           SKY/WX    TMP DP  RH WIND       PRES   REMARKS
BLANDING       PTCLDY    67  43  41 CALM      30.29S
BRYCE CANYON   PTCLDY    50  40  68 W5        30.36F
CEDAR CITY     CLEAR     68  46  45 S6        30.18R
DELTA          CLEAR     72  32  23 MISG      30.08S
MILFORD        CLEAR     69  41  36 SW9       30.11S
MOAB/CYNLANDS  PTCLDY    78  36  21 CALM      30.05R
PRICE          PTCLDY    68  20  16 CALM      30.18R
ST GEORGE      SUNNY     86  46  25 E12       29.97S
KANAB          CLEAR     66  46  48 N3        30.18S

$$

REGIONAL REPORTS     COLORADO/ARIZONA

CITY           SKY/WX    TMP DP  RH WIND       PRES   REMARKS
CRAIG, CO      CLOUDY    46  40  79 CALM      30.24F
GRAND JUNCTION CLOUDY    70  43  37 E5        30.11R
RIFLE          CLEAR     61  39  44 S3        30.21R
MONTROSE       CLOUDY    66  39  37 S10       30.23S
CORTEZ         CLOUDY    63  46  54 E3        30.24S
PAGE, AZ       CLEAR     79  44  28 SW5       30.09S
GRAND CANYON   CLEAR     54  49  83 CALM      30.31R
KINGMAN        CLEAR     76  51  41 SE3       30.03S
FLAGSTAFF      CLEAR     56  46  69 CALM      30.33S

$$

REGIONAL REPORTS    NEVADA/IDAHO/WYOMING

CITY           SKY/WX    TMP DP  RH WIND       PRES   REMARKS
LAS VEGAS, NV  PTCLDY    93  31  11 S9        29.82S
ELY            CLEAR     50  23  34 S6        30.21R
ELKO           CLEAR     55  29  36 CALM      30.11S
POCATELLO, ID  CLOUDY    52  33  48 E3        30.11S
BURLEY         CLEAR     56  40  55 CALM      30.06S
EVANSTON, WY   CLOUDY    58  23  26 SE6       30.30S
ROCK SPRINGS   CLOUDY    57  15  19 SW7       30.26S
KEMMERER         N/A     46  28  49 NW10      30.32R

$$




USA.gov is the U.S. government's official web portal to all federal, state and local government web resources and services.